EW1071 Weather Reports


Display with metric or nautical units.
time (UTC)temp
F
wind
direction
speed
MPH
gust
MPH
rain 1hr
in
rain 24hr
in
rain mn
in
humidity
%
barometer
mb
20260906063057 61 74 0.0 0.0 0.00 0.00 0.00 67 1016.9
20260906061554 60 74 0.0 0.0 0.00 0.00 0.00 69 1017.1
20260906060052 59 74 0.0 0.0 0.00 0.00 0.00 70 1017.0
20260906054547 58 74 0.0 0.0 0.00 0.00 0.00 70 1016.8
20260906053045 57 74 0.0 0.0 0.00 0.00 0.00 70 1016.7
20260906051542 57 74 0.0 0.0 0.00 0.00 0.00 70 1016.3
20260906050040 57 74 0.0 0.0 0.00 0.00 0.00 65 1016.1
20260906044542 54 74 0.0 0.0 0.00 0.00 0.00 67 1015.8
20260906043043 52 74 0.0 1.0 0.00 0.00 0.00 65 1015.5
20260906041538 51 74 0.0 4.0 0.00 0.00 0.00 65 1015.3
20260906040035 51 74 0.0 2.0 0.00 0.00 0.00 67 1015.1
20260906034531 50 74 0.0 2.0 0.00 0.00 0.00 71 1014.8
20260906033027 50 74 0.0 3.0 0.00 0.00 0.00 73 1014.5
20260906031541 50 74 0.0 2.0 0.00 0.00 0.00 76 1014.3
20260906030021 50 74 0.0 2.0 0.00 0.00 0.00 79 1014.1
20260906024521 52 74 0.0 1.0 0.00 0.00 0.00 80 1013.9
20260906023020 54 74 0.0 1.0 0.00 0.00 0.00 78 1013.8
20260906021517 55 74 1.0 6.0 0.00 0.00 0.00 75 1013.4
20260906020016 53 92 4.0 13.0 0.00 0.00 0.00 81 1013.0
20260906014513 51 75 1.0 4.0 0.00 0.00 0.00 86 1013.2
20260906013112 50 75 0.0 2.0 0.00 0.00 0.00 86 1013.1
20260906011514 51 75 0.0 1.0 0.00 0.00 0.00 86 1012.9
20260906010007 51 75 0.0 0.0 0.00 0.00 0.00 85 1012.5
20260906004505 51 75 0.0 2.0 0.00 0.00 0.00 85 1012.3
20260906003003 52 75 0.0 0.0 0.00 0.00 0.00 84 1012.2
20260906001612 53 75 0.0 1.0 0.00 0.00 0.00 83 1012.0
20260906000056 54 75 0.0 3.0 0.00 0.00 0.00 80 1011.6
20260905234555 55 75 0.0 9.0 0.00 0.00 0.00 81 1011.2
20260905233105 54 38 1.0 12.0 0.00 0.00 0.00 85 1011.2
20260905231653 55 66 4.0 22.0 0.00 0.00 0.00 85 1011.0
20260905230054 55 90 11.0 22.0 0.00 0.00 0.00 85 1010.8
20260905224558 55 110 10.0 26.0 0.00 0.00 0.00 84 1011.0
20260905223048 55 127 12.0 29.0 0.00 0.00 0.00 84 1010.9
20260905221549 55 133 13.0 26.0 0.00 0.00 0.00 84 1011.1
20260905220043 56 85 9.0 26.0 0.00 0.00 0.00 84 1011.4
20260905214543 56 90 9.0 23.0 0.00 0.00 0.00 84 1011.7
20260905213041 56 34 10.0 21.0 0.00 0.00 0.00 84 1012.0
20260905204552 56 109 16.0 30.0 0.00 0.00 0.00 83 1011.5
20260905203054 56 109 15.0 30.0 0.00 0.00 0.00 82 1011.8
20260905201557 56 101 15.0 28.0 0.00 0.00 0.00 82 1012.0
20260905200100 57 80 14.0 35.0 0.00 0.00 0.00 81 1012.1
20260905194547 57 105 17.0 28.0 0.00 0.00 0.00 80 1012.4
20260905193045 57 126 8.0 26.0 0.00 0.00 0.00 79 1012.4
20260905191544 58 124 13.0 26.0 0.00 0.00 0.00 78 1012.6
20260905190044 58 73 15.0 32.0 0.00 0.00 0.00 77 1012.3
20260905184543 59 103 14.0 29.0 0.00 0.00 0.00 76 1012.3
20260905183047 59 118 12.0 25.0 0.00 0.00 0.00 75 1012.6
20260905181541 60 111 10.0 27.0 0.00 0.00 0.00 73 1012.5
20260905180039 60 107 10.0 28.0 0.00 0.00 0.00 71 1012.2
20260905174538 61 127 9.0 22.0 0.00 0.00 0.00 70 1012.0
20260905173039 61 115 9.0 21.0 0.00 0.00 0.00 68 1011.9
20260905171554 62 54 10.0 19.0 0.00 0.00 0.00 68 1011.9
20260905170037 63 111 5.0 21.0 0.00 0.00 0.00 67 1011.7
20260905164540 63 66 3.0 14.0 0.00 0.00 0.00 68 1011.5
20260905163036 64 43 2.0 7.0 0.00 0.00 0.00 69 1011.4
20260905161540 64 49 3.0 7.0 0.00 0.00 0.00 69 1011.3
20260905160044 65 58 0.0 7.0 0.00 0.00 0.00 69 1011.2
20260905154549 65 55 1.0 8.0 0.00 0.00 0.00 68 1011.0
20260905153033 66 315 1.0 15.0 0.00 0.00 0.00 67 1010.7
20260905151536 67 121 5.0 21.0 0.00 0.00 0.00 65 1010.6
20260905150032 68 81 8.0 20.0 0.00 0.00 0.00 63 1010.4
20260905144541 69 114 8.0 17.0 0.00 0.00 0.00 62 1010.4
20260905143031 70 130 5.0 17.0 0.00 0.00 0.00 58 1010.3
20260905141531 71 138 0.0 17.0 0.00 0.00 0.00 58 1010.6
20260905140035 71 118 2.0 12.0 0.00 0.00 0.00 53 1010.9
20260905134529 72 133 0.0 8.0 0.00 0.00 0.00 53 1010.6
20260905133028 72 184 0.0 9.0 0.00 0.00 0.00 52 1010.6
20260905131527 72 119 0.0 11.0 0.00 0.00 0.00 51 1010.6
20260905130025 73 113 1.0 8.0 0.00 0.00 0.00 51 1010.9
20260905124532 73 84 1.0 10.0 0.00 0.00 0.00 50 1010.8
20260905123024 74 174 0.0 4.0 0.00 0.00 0.00 46 1010.9
20260905121525 74 112 0.0 7.0 0.00 0.00 0.00 48 1011.1
20260905120025 74 132 0.0 4.0 0.00 0.00 0.00 47 1011.2
20260905114521 76 148 0.0 7.0 0.00 0.00 0.00 45 1011.4
20260905113017 75 112 0.0 7.0 0.00 0.00 0.00 48 1011.7
20260905111517 74 141 0.0 4.0 0.00 0.00 0.00 48 1011.9
20260905110015 74 182 1.0 11.0 0.00 0.00 0.00 47 1012.1
20260905104523 74 121 1.0 7.0 0.00 0.00 0.00 46 1012.2
20260905103012 74 162 0.0 7.0 0.00 0.00 0.00 48 1012.5
20260905101509 75 132 0.0 4.0 0.00 0.00 0.00 49 1012.6
20260905100007 73 213 0.0 5.0 0.00 0.00 0.00 47 1013.0
20260905094506 74 161 0.0 3.0 0.00 0.00 0.00 51 1013.2
20260905093006 74 207 0.0 9.0 0.00 0.00 0.00 50 1013.4
20260905091504 74 200 0.0 8.0 0.00 0.00 0.00 53 1013.4
20260905090002 73 70 0.0 0.0 0.00 0.00 0.00 57 1013.6
20260905084559 70 257 0.0 0.0 0.00 0.00 0.00 64 1013.9
20260905083054 69 250 0.0 0.0 0.00 0.00 0.00 64 1014.2
20260905081601 69 250 0.0 0.0 0.00 0.00 0.00 66 1014.4
20260905080056 68 250 0.0 0.0 0.00 0.00 0.00 67 1014.6
20260905074547 68 246 0.0 0.0 0.00 0.00 0.00 69 1014.8
20260905073048 66 246 0.0 0.0 0.00 0.00 0.00 72 1015.0
20260905071553 65 108 0.0 0.0 0.00 0.00 0.00 74 1015.3
20260905070046 63 81 0.0 0.0 0.00 0.00 0.00 77 1015.3
20260905064539 63 81 0.0 0.0 0.00 0.00 0.00 78 1015.4